COSMOS 1275 DEB, 17627

Orbit data source: Space-Track

COSMOS 1275 DEB, 17627 is space debris in LEO originally from a launch on Thu, 04 Jun 1981 UTC launched from the Plesetsk Missile And Space Complex (PKMTR). Debris objects in space refer to the collection of defunct objects orbiting the Earth. Examples of debris include non-operational satellites, rocket bodies, and fragments generated from explosions, collisions, or faulty payload assembly.

Loading next visibility...
Identifier
17627, 1981-053KW
Orbit
LEO
Country
Flag of CISCIS
Related business
Manufacturer
Unknown
Mission
Spacecraft
Bus & Motor
Unknown
Mass
Unknown
Launch date (UTC)
1981-06-04 (45 years ago)
Launch vehicle
Unknown
Launch site
Plesetsk Missile And Space Complex (PKMTR)
Object type
Payload
Rocket body
Debris
Shape & HBR
Unknown shape, 0.1 m
Radar Cross Section
Small (<0.1 m²)

Expand to show TLE details & history
Last TLE update: 1 day ago

TLE from 1 day ago
0 COSMOS 1275 DEB
1 17627U 81053KW  25349.87647424  .00001474  00000-0  97681-3 0  9995
2 17627  82.9230 137.4248 0047760 239.5770 120.0677 14.00334510 59968
Epoch: 2025-12-15T21:02Z
TLE epoch observation values (Epoch: 2025-12-15T21:02:07.374Z)
Latitude
0.00001°
Longitude
97.12533°
Altitude
913.097 km
Speed
7.386 km/s
True Right ascension
09h 09m 41s
True Declination
0° 00' 00"
Sunlit
Object was in full shadow at epoch
Visualization orbit readout
Latitude
Unknown
Longitude
Unknown
Altitude
Unknown
Speed
Unknown
Apparent Right ascension
Unknown
Apparent Declination
Unknown
Sunlit
N/A
Visualization observer readout
Local Sidereal Time
19:34:36
Azimuth
Unknown
Elevation
Unknown
Doppler factor
Unknown
Orbital elements
Apogee altitude
924.463 km
Perigee altitude
855.04 km
Semi-major axis
7,267.888 km
Eccentricity
0.00478
Inclination
82.923°
RAAN
137.4248°
Arg. of periapsis
239.577°
True anomaly
120.53992°
Mean anomaly
120.0677°
Eccentric anomaly
120.30395°
Mean motion
3.50292 °/min
Orbital period
102.77 mins
BSTAR
0.00097681
Loading maneuver chart data...
Computing Atmospheric mass density...
Loading historical data...
Loading historical data...
Loading historical data...
Loading historical data...
Loading historical data...
Loading historical data...
Loading historical data...

Documentation

Showing up to 5 results
|